"datetime","# probes","# resolvers","can_ipv6","can_ipv6_prbs","can_tcp","can_tcp_prbs","can_tcp6","can_tcp6_prbs","does_ecs","does_ecs_prbs","does_flagday","does_flagday_prbs","does_rov4","does_rov4_prbs","does_rov6","does_rov6_prbs","does_qnamemin","doesnt_qnamemin","does_qnamemin_prbs","doesnt_qnamemin_prbs","does_nxdomain","doesnt_nxdomain","does_nxdomain_prbs","doesnt_nxdomain_prbs","has_ta_19036","hasnt_ta_19036","has_ta_19036_prbs","hasnt_ta_19036_prbs","has_ta_20326","hasnt_ta_20326","has_ta_20326_prbs","hasnt_ta_20326_prbs","can_rsamd5","cannot_rsamd5","broken_rsamd5","can_rsamd5_prbs","cannot_rsamd5_prbs","broken_rsamd5_prbs","can_dsa","cannot_dsa","broken_dsa","can_dsa_prbs","cannot_dsa_prbs","broken_dsa_prbs","can_rsasha1","cannot_rsasha1","broken_rsasha1","can_rsasha1_prbs","cannot_rsasha1_prbs","broken_rsasha1_prbs","can_dsansec3","cannot_dsansec3","broken_dsansec3","can_dsansec3_prbs","cannot_dsansec3_prbs","broken_dsansec3_prbs","can_rsansec3","cannot_rsansec3","broken_rsansec3","can_rsansec3_prbs","cannot_rsansec3_prbs","broken_rsansec3_prbs","can_rsasha256","cannot_rsasha256","broken_rsasha256","can_rsasha256_prbs","cannot_rsasha256_prbs","broken_rsasha256_prbs","can_rsasha512","cannot_rsasha512","broken_rsasha512","can_rsasha512_prbs","cannot_rsasha512_prbs","broken_rsasha512_prbs","can_eccgost","cannot_eccgost","broken_eccgost","can_eccgost_prbs","cannot_eccgost_prbs","broken_eccgost_prbs","can_ecdsa256","cannot_ecdsa256","broken_ecdsa256","can_ecdsa256_prbs","cannot_ecdsa256_prbs","broken_ecdsa256_prbs","can_ecdsa384","cannot_ecdsa384","broken_ecdsa384","can_ecdsa384_prbs","cannot_ecdsa384_prbs","broken_ecdsa384_prbs","can_ed25519","cannot_ed25519","broken_ed25519","can_ed25519_prbs","cannot_ed25519_prbs","broken_ed25519_prbs","can_ed448","cannot_ed448","broken_ed448","can_ed448_prbs","cannot_ed448_prbs","broken_ed448_prbs","can_gost","cannot_gost","broken_gost","can_gost_prbs","cannot_gost_prbs","broken_gost_prbs","can_sha384","cannot_sha384","broken_sha384","can_sha384_prbs","cannot_sha384_prbs","broken_sha384_prbs","is_internal","is_forwarding","is_external","is_internal_prbs","is_forwarding_prbs","is_external_prbs"
2017-06-20T23:59:59Z,132,201,152,108,198,132,136,100,38,39,0,0,0,0,0,0,0,201,0,132,6,195,3,130,0,0,0,0,0,0,0,0,3,194,2,8,128,14,7,192,0,14,129,0,9,190,0,26,126,0,5,194,0,14,129,0,6,193,0,25,127,0,7,192,0,25,126,0,7,192,0,26,126,0,0,201,0,6,132,0,1,200,0,22,131,0,0,201,0,22,132,0,0,201,0,0,132,0,0,201,0,0,132,0,1,200,0,19,131,1,3,197,0,24,128,0,124,60,17,83,46,22
2017-06-21T23:59:59Z,134,202,151,109,199,134,132,100,41,40,0,0,0,0,0,0,0,201,0,134,6,196,3,132,0,0,0,0,0,0,0,0,4,196,0,9,130,14,5,195,0,12,132,0,7,193,0,26,128,0,6,194,0,14,130,0,7,193,0,26,128,0,7,193,0,26,128,0,7,193,0,26,128,0,1,201,0,7,133,0,0,202,0,22,134,0,0,202,0,22,134,0,0,202,0,0,134,0,0,202,0,0,134,0,2,200,0,21,132,1,1,200,0,23,133,0,121,61,19,82,46,23
2017-06-22T23:59:59Z,135,204,153,110,199,135,134,101,42,42,0,0,0,0,0,0,0,203,0,135,6,198,3,133,0,0,0,0,0,0,0,0,3,199,0,7,132,14,7,195,0,14,131,0,7,195,0,26,129,0,5,197,0,13,132,0,6,196,0,25,130,0,8,194,0,27,128,0,7,195,0,26,129,0,0,204,0,6,135,0,1,203,0,23,135,0,0,204,0,22,135,0,0,204,0,0,135,0,0,204,0,0,135,0,0,204,0,19,135,1,0,203,0,22,135,0,122,60,19,83,46,24
2017-06-23T23:59:59Z,135,204,153,110,200,135,130,98,45,44,0,0,0,0,0,0,2,201,1,135,6,198,3,133,0,0,0,0,0,0,0,0,3,199,0,8,132,14,5,197,0,12,133,0,6,196,0,25,130,0,6,196,0,14,131,0,10,192,0,29,127,0,8,194,0,27,128,0,7,195,0,26,129,0,1,203,0,7,134,0,0,204,0,22,135,0,0,204,0,22,135,0,0,204,0,0,135,0,0,204,0,0,135,0,2,202,0,21,133,1,1,202,0,23,134,0,120,63,19,84,48,23
2017-06-24T23:59:58Z,132,200,150,106,196,132,133,100,39,39,0,0,0,0,0,0,0,199,0,132,6,194,3,130,0,0,0,0,0,0,0,0,3,195,0,7,129,13,5,193,0,12,130,0,8,190,0,25,126,0,5,193,0,13,129,0,6,192,0,24,127,0,6,192,0,24,127,0,6,192,0,24,127,0,0,200,0,6,132,0,0,200,0,21,132,0,0,200,0,21,132,0,0,200,0,0,132,0,0,200,0,0,132,0,2,198,0,20,131,1,0,199,0,21,132,0,120,59,18,82,45,22
2017-06-25T23:59:58Z,133,202,149,105,196,132,130,96,39,39,0,0,0,0,0,0,0,201,0,133,6,196,3,131,0,0,0,0,0,0,0,0,3,195,2,8,129,14,7,193,0,13,130,0,10,190,0,26,126,0,5,195,0,13,130,0,8,192,0,25,127,0,8,192,0,25,127,0,8,192,0,25,127,0,0,202,0,6,133,0,0,202,0,21,133,0,0,202,0,21,133,0,0,202,0,0,133,0,0,202,0,0,133,0,0,202,0,18,133,1,0,201,0,21,133,0,126,57,18,85,43,22
2017-06-26T23:59:57Z,139,210,156,111,205,138,134,102,38,41,0,0,0,0,0,0,0,209,0,139,6,204,3,137,0,0,0,0,0,0,0,0,4,204,0,9,135,14,5,203,0,13,137,0,6,202,0,26,134,0,5,203,0,14,136,0,7,201,0,27,133,0,8,200,0,28,132,0,8,200,0,28,132,0,0,210,0,6,139,0,0,210,0,23,139,0,0,210,0,23,139,0,0,210,0,0,139,0,0,210,0,0,139,0,1,209,0,20,138,1,1,208,0,24,138,0,129,60,19,87,47,23
2017-06-27T23:59:59Z,137,206,151,109,201,136,134,99,38,39,0,0,0,0,0,0,0,205,0,137,6,200,3,135,0,0,0,0,0,0,0,0,1,203,0,8,135,15,3,201,0,12,136,0,4,200,0,26,133,0,3,201,0,13,135,0,5,199,0,27,133,0,5,199,0,27,133,0,4,200,0,26,133,0,0,206,0,6,137,0,1,205,0,25,137,0,0,206,0,24,137,0,0,206,0,0,137,0,0,206,0,0,137,0,0,206,0,20,137,1,0,205,0,24,137,0,124,59,19,85,43,24
2017-06-28T23:59:59Z,136,204,154,110,199,135,138,103,41,41,0,0,0,0,0,0,2,201,1,136,3,201,2,135,0,0,0,0,0,0,0,0,4,198,0,9,132,15,5,197,0,13,134,0,6,196,0,27,131,0,5,197,0,14,133,0,6,196,0,27,131,0,6,196,0,27,131,0,6,196,0,27,131,0,0,204,0,6,136,0,0,204,0,24,136,0,0,204,0,24,136,0,0,204,0,0,136,0,0,204,0,0,136,0,0,204,0,20,136,1,0,203,0,24,136,0,119,63,19,84,47,24
2017-06-29T23:59:59Z,139,207,157,113,200,138,136,104,37,39,0,0,0,0,0,0,0,206,0,139,3,204,2,138,0,0,0,0,0,0,0,0,4,201,0,10,135,16,8,197,0,15,135,0,9,196,0,30,132,0,7,198,0,15,135,0,10,195,0,30,131,0,9,195,1,29,131,1,10,195,0,30,131,0,0,207,0,6,139,0,1,206,0,26,138,0,0,207,0,25,139,0,0,207,0,0,139,0,0,207,0,0,139,0,1,206,0,22,138,1,2,204,0,27,137,1,126,60,19,88,45,24
2017-06-30T23:59:59Z,140,208,158,114,203,139,138,104,41,42,0,0,0,0,0,0,2,205,1,140,3,205,2,139,0,0,0,0,0,0,0,0,5,202,0,11,136,16,7,199,0,15,136,0,7,199,0,29,134,0,5,201,0,14,137,0,9,197,0,30,132,0,8,197,1,29,132,1,9,197,0,30,132,0,0,208,0,6,140,0,0,208,0,25,140,0,0,208,0,25,140,0,0,208,0,0,140,0,0,208,0,0,140,0,0,208,0,21,140,1,1,206,0,26,139,1,127,60,19,87,46,24
2017-07-01T23:59:59Z,137,205,156,112,202,137,134,102,42,42,0,0,0,0,0,0,0,204,0,137,3,202,2,136,0,0,0,0,0,0,0,0,5,199,0,10,133,14,8,195,0,15,133,0,10,193,0,29,129,0,5,198,0,14,134,0,7,196,0,27,131,0,7,196,0,26,131,0,7,196,0,27,131,0,0,205,0,6,137,0,0,205,0,23,137,0,0,205,0,23,137,0,0,205,0,0,137,0,0,205,0,0,137,0,2,203,0,21,135,1,1,203,0,24,136,1,124,60,19,88,46,23
2017-07-02T23:59:56Z,138,206,155,112,201,137,131,99,41,43,0,0,0,0,0,0,0,205,0,138,3,203,2,137,0,0,0,0,0,0,0,0,2,202,1,8,135,16,4,199,1,13,135,1,5,199,0,27,133,0,3,201,0,13,136,0,5,199,0,27,133,0,5,199,0,27,133,0,5,199,0,27,133,0,0,206,0,6,138,0,0,206,0,24,138,0,0,206,0,24,138,0,0,206,0,0,138,0,0,206,0,0,138,0,1,205,0,21,137,1,1,204,0,25,137,1,124,60,19,87,45,24
2017-07-03T23:59:59Z,139,211,155,111,205,138,130,98,40,42,0,0,0,0,0,0,0,210,0,139,6,205,3,137,0,0,0,0,0,0,0,0,5,204,1,10,134,16,6,203,0,14,136,0,8,201,0,29,132,0,5,204,0,14,136,0,8,201,0,29,132,0,8,201,0,28,132,0,8,201,0,29,132,0,0,211,0,6,139,0,0,211,0,24,139,0,0,211,0,24,139,0,0,211,0,0,139,0,0,211,0,0,139,0,2,209,0,22,137,1,2,208,0,26,137,1,128,61,19,88,48,24
2017-07-04T23:59:58Z,140,213,158,112,208,139,135,100,42,42,0,0,0,0,0,0,2,210,1,140,6,207,3,138,0,0,0,0,0,0,0,0,4,206,2,10,135,16,5,206,0,13,138,0,6,205,0,26,135,0,5,206,0,14,137,0,10,201,0,29,132,0,9,202,0,27,133,0,9,202,0,28,133,0,0,213,0,6,140,0,2,211,0,24,139,0,0,213,0,23,140,0,0,213,0,0,140,0,0,213,0,0,140,0,1,212,0,20,139,1,2,210,0,25,138,1,131,61,19,92,48,23
2017-07-05T23:59:59Z,137,211,158,110,208,137,130,96,46,44,0,0,0,0,0,0,2,208,1,137,6,205,3,135,0,0,0,0,0,0,0,0,4,206,0,9,134,14,6,203,0,14,134,0,7,202,0,27,131,0,6,203,0,15,133,0,10,199,0,30,129,0,9,200,0,29,130,0,8,201,0,28,130,0,1,210,0,7,136,0,0,211,0,23,137,0,0,211,0,23,137,0,0,211,0,0,137,0,0,211,0,0,137,0,3,208,0,21,135,1,5,205,0,27,133,1,125,62,21,86,47,23
2017-07-06T23:59:59Z,139,215,161,112,210,139,139,102,48,44,0,0,0,0,0,0,0,214,0,139,6,209,3,137,0,0,0,0,0,0,0,0,5,208,1,10,134,14,5,208,0,13,137,0,7,206,0,26,133,0,5,206,0,14,136,0,8,203,0,27,133,0,8,203,0,27,133,0,9,202,0,28,132,0,0,213,0,6,139,0,0,213,0,22,139,0,0,215,0,22,139,0,0,215,0,0,139,0,0,215,0,0,139,0,2,211,0,20,138,1,2,210,0,24,137,1,132,58,22,90,44,23
2017-07-07T23:59:58Z,137,214,159,109,207,136,139,101,45,41,0,0,0,0,0,0,1,212,1,137,6,208,3,135,0,0,0,0,0,0,0,0,5,208,1,10,133,13,7,207,0,14,135,0,11,203,0,26,130,0,7,205,0,14,134,0,8,204,0,24,132,0,8,204,0,24,132,0,8,204,0,24,132,0,0,212,0,6,137,0,0,212,0,21,137,0,0,214,0,21,137,0,0,214,0,0,137,0,0,214,0,0,137,0,1,211,0,18,137,1,0,211,0,21,137,1,133,58,21,91,44,22
2017-07-08T23:59:59Z,139,216,163,112,209,137,144,103,43,40,0,0,0,0,0,0,2,213,1,139,6,210,3,137,0,0,0,0,0,0,0,0,5,210,1,10,136,13,8,208,0,15,136,0,9,207,0,25,134,0,8,208,0,15,135,0,12,204,0,28,132,0,10,206,0,26,132,0,11,205,0,27,132,0,1,215,0,7,138,0,0,216,0,21,139,0,0,216,0,21,139,0,0,216,0,0,139,0,0,216,0,0,139,0,5,211,0,22,136,1,4,211,0,24,137,1,137,56,20,94,43,22
2017-07-09T23:59:59Z,134,203,151,107,199,133,129,97,42,40,0,0,0,0,0,0,1,202,1,134,6,197,3,132,0,0,0,0,0,0,0,0,3,200,0,8,132,14,6,197,0,13,132,0,6,197,0,23,130,0,6,197,0,13,131,0,6,196,1,22,129,1,7,195,1,23,128,1,7,195,1,23,128,1,0,202,1,5,133,2,0,202,1,21,133,1,0,203,0,21,134,0,0,203,0,0,134,1,0,203,0,0,134,1,2,200,1,19,132,2,0,202,1,20,133,2,131,53,16,90,41,20
2017-07-10T23:59:59Z,138,211,156,110,207,137,135,101,43,41,0,0,0,0,0,0,1,210,1,138,6,205,3,136,0,0,0,0,0,0,0,0,7,204,0,11,133,14,8,203,0,14,135,0,11,200,0,27,131,0,8,203,0,14,134,0,10,201,0,27,132,0,10,201,0,27,132,0,10,201,0,27,132,0,1,210,0,7,137,0,0,211,0,22,138,0,0,211,0,22,138,0,0,211,0,0,138,0,0,211,0,0,138,0,1,210,0,19,138,1,1,210,0,23,137,1,133,58,18,92,43,22
2017-07-11T23:59:56Z,134,208,153,106,204,133,132,97,41,41,0,0,0,0,0,0,0,208,0,134,6,202,3,132,0,0,0,0,0,0,0,0,5,203,0,8,131,14,7,201,0,12,132,0,11,197,0,26,127,0,7,201,0,12,131,0,9,199,0,25,129,0,9,199,0,25,129,0,10,198,0,26,128,0,0,208,0,5,134,0,1,207,0,23,133,0,0,208,0,22,134,0,0,208,0,0,134,0,0,208,0,0,134,0,1,207,0,18,134,1,2,206,0,23,133,1,135,54,17,89,42,22
2017-07-12T23:59:59Z,135,208,156,108,203,134,133,97,43,41,0,0,0,0,0,0,0,208,0,135,4,204,2,133,0,0,0,0,0,0,0,0,6,202,0,9,131,14,9,199,0,14,131,0,11,197,0,26,128,0,8,200,0,13,131,0,10,198,0,26,129,0,10,198,0,26,129,0,12,196,0,27,128,0,1,207,0,6,134,0,0,208,0,21,135,0,0,208,0,21,135,0,0,208,0,0,135,0,0,208,0,0,135,0,2,206,0,19,135,1,1,207,0,22,135,1,131,58,18,87,45,22
2017-07-13T23:59:59Z,133,204,152,106,198,132,133,97,44,41,0,0,0,0,0,0,0,204,0,133,4,200,2,131,0,0,0,0,0,0,0,0,3,201,0,7,131,14,6,198,0,12,131,0,9,195,0,25,127,0,6,196,0,12,130,0,7,195,0,24,128,0,6,196,0,23,129,0,7,195,0,24,128,0,0,202,0,4,133,0,0,202,0,21,133,0,0,204,0,21,133,0,0,204,0,0,133,0,0,204,0,0,133,0,3,199,0,20,131,1,4,198,0,24,130,0,124,59,19,84,44,22
2017-07-14T23:59:59Z,134,204,153,106,198,132,134,97,44,41,0,0,0,0,0,0,2,202,1,134,4,200,3,132,0,0,0,0,0,0,0,0,5,199,0,8,131,14,7,197,0,12,132,1,11,193,0,26,127,1,7,197,0,12,131,1,9,195,0,25,128,1,9,195,0,25,128,1,10,194,0,26,127,1,0,204,0,4,134,1,0,204,0,21,134,1,0,204,0,21,134,1,0,204,0,0,134,1,0,204,0,0,134,1,2,202,0,18,133,2,0,204,0,21,134,0,129,56,18,86,43,22
2017-07-15T23:59:59Z,133,202,151,105,198,132,129,95,42,39,0,0,0,0,0,0,0,202,0,133,4,198,2,131,0,0,0,0,0,0,0,0,6,196,0,8,129,14,7,195,0,12,131,0,8,194,0,24,128,0,7,195,0,12,130,0,9,193,0,25,127,0,10,192,0,26,126,0,10,192,0,26,126,0,0,202,0,4,133,0,1,201,0,22,133,0,0,202,0,21,133,0,0,202,0,0,133,0,0,202,0,0,133,0,0,202,0,17,133,1,2,200,0,22,132,0,122,60,18,83,45,22
2017-07-16T23:59:59Z,131,199,148,103,195,130,129,93,42,40,0,0,0,0,0,0,0,199,0,131,4,195,2,129,0,0,0,0,0,0,0,0,3,196,0,7,129,14,6,193,0,12,129,0,9,190,0,25,125,0,6,193,0,12,128,0,8,191,0,25,125,0,8,191,0,25,125,0,8,191,0,25,125,0,1,198,0,5,130,0,0,199,0,21,131,0,0,199,0,21,131,0,0,199,0,0,131,0,0,199,0,0,131,0,4,195,0,20,128,1,1,198,0,22,130,0,123,55,19,84,42,22
2017-07-17T23:59:57Z,134,205,153,106,201,134,136,97,43,38,0,0,0,0,0,0,2,203,1,134,4,201,2,132,0,0,0,0,0,0,0,0,5,199,1,8,130,16,7,198,0,12,132,0,10,195,0,27,127,0,7,196,0,12,131,0,10,193,0,27,127,0,11,192,0,28,126,0,11,192,0,28,126,0,0,203,0,4,134,0,1,202,0,23,133,0,0,205,0,22,134,0,0,205,0,0,134,0,0,205,0,0,134,0,2,201,0,20,133,1,1,202,0,23,133,0,122,61,19,84,45,23
2017-07-18T23:59:58Z,132,199,147,104,195,132,130,95,39,38,0,0,0,0,0,0,0,199,0,132,4,195,2,130,0,0,0,0,0,0,0,0,3,196,0,7,130,15,5,194,0,11,131,0,6,193,0,24,128,0,6,191,0,12,129,0,7,190,0,25,127,0,8,189,0,26,127,0,7,190,0,25,127,0,1,196,0,5,131,0,0,197,0,22,132,0,0,199,0,23,132,0,0,199,0,0,132,0,0,199,0,0,132,0,2,195,0,20,130,1,3,194,0,25,130,0,119,59,19,82,44,23
2017-07-19T23:59:59Z,134,204,152,106,200,134,134,97,46,43,0,0,0,0,0,0,3,201,2,134,4,200,2,132,0,0,0,0,0,0,0,0,5,199,0,8,131,15,8,196,0,14,131,0,9,195,0,27,128,0,11,191,0,16,128,0,12,190,0,29,126,0,10,192,0,28,127,0,9,193,0,27,128,0,3,199,0,7,132,0,2,200,0,24,133,0,0,204,0,23,134,0,0,204,0,0,134,0,0,204,0,0,134,0,3,199,0,22,132,1,6,196,0,27,130,0,127,57,19,87,43,23
2017-07-20T23:59:59Z,132,200,152,106,195,132,137,99,45,42,0,0,0,0,0,0,2,198,1,132,1,199,1,131,0,0,0,0,0,0,0,0,6,193,1,9,127,16,9,191,0,14,128,0,10,190,0,27,125,0,8,190,0,13,128,0,9,189,0,26,126,0,8,190,0,25,127,0,8,190,0,25,127,0,1,197,0,5,131,0,1,197,0,23,132,0,0,200,0,22,132,0,0,200,0,0,132,0,0,200,0,0,132,0,3,195,0,21,129,1,6,192,0,27,128,0,123,58,19,85,43,23
2017-07-21T23:59:59Z,131,192,146,105,191,131,131,96,39,38,0,0,0,0,0,0,2,190,1,131,1,191,1,130,0,0,0,0,0,0,0,0,5,187,0,8,128,15,8,184,0,14,128,0,10,182,0,27,124,0,9,183,0,15,126,0,12,180,0,29,122,0,10,182,0,27,124,0,10,182,0,27,124,0,2,190,0,6,129,0,1,191,0,23,130,0,0,192,0,24,131,0,0,192,0,0,131,0,0,192,0,0,131,0,2,190,0,20,129,1,2,190,0,24,130,0,114,56,20,82,45,24
2017-07-22T23:59:58Z,130,194,148,104,191,129,133,96,40,38,0,0,0,0,0,0,1,193,1,130,1,193,1,129,0,0,0,0,0,0,0,0,6,185,3,10,124,17,9,185,0,14,127,0,13,181,0,29,122,0,7,187,0,13,127,0,8,186,0,26,125,0,8,186,0,26,125,0,8,186,0,26,125,0,0,194,0,5,130,0,0,194,0,23,130,0,0,194,0,23,130,0,0,194,0,0,130,0,0,194,0,0,130,0,1,193,0,20,129,1,0,194,0,23,130,0,114,58,20,80,46,24
2017-07-23T23:59:59Z,131,196,150,105,195,131,135,98,37,37,0,0,0,0,0,0,1,195,1,131,1,195,1,130,0,0,0,0,0,0,0,0,5,191,0,9,128,14,7,189,0,14,129,0,9,187,0,26,125,0,8,188,0,15,127,0,9,187,0,27,125,0,10,186,0,27,124,0,9,187,0,27,125,0,1,195,0,6,130,0,1,195,0,23,130,0,0,196,0,23,131,0,0,196,0,0,131,0,0,196,0,0,131,0,2,194,0,20,130,1,6,190,0,26,127,0,118,56,20,83,42,23
2017-07-24T23:59:59Z,133,203,154,106,200,132,135,96,38,37,0,0,0,0,0,0,1,202,1,133,4,199,2,131,0,0,0,0,0,0,0,0,5,197,1,9,129,15,7,196,0,13,131,0,9,194,0,26,127,0,8,195,0,14,129,0,11,192,0,27,126,0,11,192,0,27,126,0,12,191,0,28,125,0,1,202,0,6,132,0,1,202,0,23,133,0,0,203,0,22,133,0,0,203,0,0,133,0,0,203,0,0,133,0,2,201,0,19,132,1,5,198,0,25,130,0,123,58,20,83,44,23
2017-07-25T23:59:59Z,133,202,154,106,197,131,135,97,43,40,0,0,0,0,0,0,0,202,0,133,4,198,2,131,0,0,0,0,0,0,0,0,5,196,1,7,129,15,6,196,0,11,131,0,8,194,0,25,127,0,9,193,0,13,128,0,9,193,0,25,127,0,8,194,0,24,128,0,8,194,0,24,128,0,3,199,0,6,131,0,0,202,0,21,133,0,0,202,0,21,133,0,0,202,0,0,133,0,0,202,0,0,133,0,2,200,0,19,131,1,4,198,0,24,131,0,121,59,20,82,46,23
2017-07-26T23:59:56Z,134,203,159,109,199,133,140,101,43,41,0,0,0,0,0,0,1,202,1,134,4,199,2,132,0,0,0,0,0,0,0,0,6,197,0,10,130,15,8,195,0,14,131,0,9,194,0,27,128,0,6,197,0,13,131,0,10,193,0,28,127,0,10,193,0,28,127,0,8,195,0,27,129,0,2,201,0,6,133,0,3,200,0,26,132,0,0,203,0,24,134,0,0,202,1,0,134,1,1,202,0,1,134,0,2,201,0,21,133,1,7,196,0,28,130,0,125,57,19,85,45,23
2017-07-27T23:59:59Z,134,202,156,108,197,132,137,99,37,37,0,0,0,0,0,0,3,199,2,134,4,197,2,131,0,0,0,0,0,0,0,0,6,196,0,10,130,16,8,194,0,15,130,0,9,193,0,29,127,0,7,195,0,14,130,0,8,194,0,29,128,0,8,193,0,28,127,0,8,194,0,28,128,0,0,202,0,5,134,0,0,202,0,25,134,0,0,202,0,25,134,0,0,202,0,0,134,0,0,202,0,0,134,0,2,198,2,22,131,2,3,199,0,27,132,0,121,59,20,82,46,24
2017-07-28T23:59:59Z,133,202,154,106,197,131,134,96,40,39,0,0,0,0,0,0,0,202,0,133,4,198,2,131,0,0,0,0,0,0,0,0,6,196,0,10,129,15,6,196,0,12,131,0,7,195,0,25,128,0,6,196,0,12,130,0,7,195,0,25,128,0,8,194,0,26,127,0,9,193,0,27,127,0,0,202,0,4,133,0,2,200,0,24,132,0,0,202,0,23,133,0,0,202,0,0,133,0,0,202,0,0,133,0,1,201,0,19,132,1,2,200,0,24,131,0,119,61,20,82,46,24
2017-07-29T23:59:59Z,134,202,155,108,197,133,133,97,45,40,0,0,0,0,0,0,1,201,1,134,4,198,2,132,0,0,0,0,0,0,0,0,6,193,3,8,128,18,8,194,0,13,130,0,9,193,0,27,128,0,7,195,0,12,130,0,7,195,0,26,129,0,8,194,0,27,128,0,7,195,0,26,129,0,1,201,0,5,133,0,0,202,0,23,134,0,0,202,0,23,134,0,0,202,0,0,134,0,0,202,0,0,134,0,1,201,0,20,133,1,1,201,0,24,133,0,121,59,20,84,46,24
2017-07-30T23:59:59Z,135,205,157,108,201,134,138,99,42,41,0,0,0,0,0,0,1,204,1,135,4,201,2,133,0,0,0,0,0,0,0,0,5,199,1,8,131,18,8,197,0,12,132,0,8,197,0,27,130,0,6,199,0,11,132,0,8,197,0,28,129,0,7,198,0,27,130,0,7,198,0,27,130,0,0,205,0,4,135,0,0,205,0,24,135,0,0,205,0,24,135,0,0,205,0,0,135,0,0,205,0,0,135,0,2,203,0,22,133,1,3,202,0,26,133,0,123,60,20,83,46,25
2017-07-31T23:59:57Z,132,202,153,105,197,130,134,97,41,39,0,0,0,0,0,0,0,202,0,132,4,198,2,130,0,0,0,0,0,0,0,0,5,197,0,7,129,16,6,196,0,10,130,0,8,194,0,25,127,0,6,196,0,10,129,0,7,195,0,25,127,0,6,196,0,24,128,0,6,196,0,24,128,0,0,202,0,3,132,0,0,202,0,22,132,0,0,202,0,22,132,0,0,202,0,0,132,0,0,202,0,0,132,0,0,202,0,18,132,1,0,202,0,22,132,0,117,63,20,78,49,24
2017-08-01T23:59:59Z,135,204,155,108,200,134,133,97,39,38,0,0,0,0,0,0,1,203,1,135,4,200,2,133,0,0,0,0,0,0,0,0,6,196,2,8,129,17,6,198,0,10,133,0,10,194,0,26,128,0,6,198,0,10,132,0,8,196,0,25,129,0,8,196,0,25,129,0,8,196,0,25,129,0,1,203,0,4,134,0,0,204,0,21,135,0,0,204,0,21,135,0,0,204,0,0,135,0,0,204,0,0,135,0,3,201,0,19,133,1,6,198,0,25,131,0,120,62,20,82,48,23
2017-08-02T23:59:59Z,137,203,154,110,199,136,133,101,38,40,0,0,0,0,0,0,1,202,1,137,7,196,4,134,0,0,0,0,0,0,0,0,5,198,0,8,134,16,7,196,0,13,134,1,8,195,0,26,131,2,7,196,0,13,133,0,7,196,0,26,132,1,7,196,0,25,132,1,7,196,0,25,132,1,1,202,0,5,136,2,1,202,0,23,136,2,0,203,0,24,137,1,0,203,0,0,137,1,0,203,0,0,137,1,7,196,0,23,132,2,2,198,3,24,133,2,122,59,20,85,47,23
2017-08-03T23:59:59Z,135,204,153,108,200,134,133,99,36,37,0,0,0,0,0,0,1,203,2,135,4,200,4,133,0,0,0,0,0,0,0,0,3,200,1,7,132,18,6,198,0,13,132,1,8,196,0,28,129,2,6,198,0,13,131,0,9,195,0,28,129,1,7,197,0,26,131,1,9,195,0,27,130,1,1,203,0,5,134,2,1,203,0,23,134,2,0,204,0,23,135,1,0,204,0,0,135,1,0,204,0,0,135,1,4,200,0,21,133,2,6,198,0,27,131,1,119,63,20,83,48,24
2017-08-04T23:59:59Z,133,201,150,106,197,132,133,98,40,37,0,0,0,0,0,0,0,201,0,133,4,197,2,131,0,0,0,0,0,0,0,0,6,193,2,8,128,16,10,191,0,14,128,0,13,188,0,28,124,0,7,194,0,12,129,0,9,192,0,26,126,0,8,193,0,25,127,0,8,193,0,26,128,0,1,200,0,4,132,0,2,199,0,23,132,0,0,201,0,22,133,0,0,201,0,0,133,0,0,201,0,0,133,0,2,199,0,19,132,1,4,197,0,24,130,0,115,64,20,81,47,23
2017-08-05T23:59:59Z,133,203,153,107,199,132,135,99,35,35,0,0,0,0,0,0,0,203,0,133,4,199,2,131,0,0,0,0,0,0,0,0,5,197,1,7,129,16,9,194,0,14,128,0,8,195,0,26,127,0,7,196,0,12,129,0,11,192,0,28,125,0,7,196,0,25,128,0,8,195,0,26,128,0,1,202,0,4,132,0,1,202,0,22,132,0,0,203,0,22,133,0,0,203,0,0,133,0,0,203,0,0,133,0,7,196,0,22,128,1,9,194,0,28,127,0,122,59,20,83,44,23
2017-08-06T23:59:59Z,129,197,147,103,193,128,129,94,37,37,0,0,0,0,0,0,2,195,1,129,4,193,2,127,0,0,0,0,0,0,0,0,3,194,0,5,127,15,7,190,0,11,126,0,7,190,0,24,124,0,7,190,0,11,125,0,7,190,0,24,124,0,8,189,0,26,124,0,8,189,0,26,123,0,3,194,0,5,127,0,0,197,0,21,129,0,0,197,0,21,129,0,0,197,0,0,129,0,0,197,0,0,129,0,3,194,0,19,127,1,3,194,0,23,127,0,117,58,20,80,44,23
2017-08-07T23:59:58Z,129,196,146,103,191,127,131,96,35,35,0,0,0,0,0,0,0,196,0,129,4,192,2,127,0,0,0,0,0,0,0,0,6,190,0,8,125,15,7,189,0,11,126,0,6,190,0,23,125,0,7,189,0,11,125,0,7,189,0,24,124,0,6,190,0,23,125,0,6,190,0,23,125,0,1,195,0,4,128,0,1,195,0,22,129,0,0,196,0,21,129,0,0,196,0,0,129,0,0,196,0,0,129,0,5,191,0,21,127,1,3,193,0,23,127,0,114,60,20,78,46,23
2017-08-08T23:59:59Z,131,197,147,105,194,130,135,99,36,36,0,0,0,0,0,0,2,195,1,131,4,193,2,129,0,0,0,0,0,0,0,0,5,192,0,7,128,15,7,190,0,11,128,0,9,188,0,25,125,0,10,187,0,13,125,0,9,188,0,25,125,0,10,187,0,26,124,0,8,189,0,25,125,0,2,195,0,4,130,0,0,197,0,21,131,0,0,197,0,22,131,0,0,197,0,0,131,0,0,197,0,0,131,0,5,192,0,20,129,1,4,193,0,23,128,0,119,58,20,83,43,23
2017-08-09T23:59:57Z,131,200,150,106,198,131,130,95,38,38,0,0,0,0,0,0,0,200,0,131,4,196,2,129,0,0,0,0,0,0,0,0,6,191,3,7,125,16,8,192,0,11,127,0,14,186,0,27,121,0,7,193,0,10,127,0,9,191,0,24,124,0,7,193,0,22,126,0,11,189,0,25,123,0,1,199,0,3,130,0,0,200,0,19,131,0,0,200,0,19,131,0,0,200,0,0,131,0,0,200,0,0,131,0,5,195,0,19,128,1,4,194,2,21,128,1,121,57,20,82,44,23
2017-08-10T23:59:59Z,128,198,148,103,196,128,135,97,43,40,0,0,0,0,0,0,0,198,0,128,4,194,2,126,0,0,0,0,0,0,0,0,5,193,0,6,125,14,8,190,0,11,125,0,9,189,0,23,122,0,8,190,0,11,124,0,9,189,0,23,122,0,9,189,0,23,122,0,6,192,0,22,124,0,2,196,0,3,127,0,0,198,0,21,128,0,0,198,0,21,128,0,0,198,0,0,128,0,0,198,0,0,128,0,0,198,0,15,128,1,5,193,0,21,126,0,112,64,20,76,46,23
2017-08-11T23:59:59Z,129,198,148,104,196,129,134,97,38,38,0,0,0,0,0,0,0,198,0,129,4,192,2,126,0,0,0,0,0,0,0,0,3,194,1,5,126,15,4,194,0,8,128,0,7,191,0,22,124,0,5,193,0,9,126,0,5,193,0,21,125,0,5,193,0,21,125,0,5,193,0,21,125,0,1,197,0,3,128,0,0,198,0,19,129,0,0,198,0,19,129,0,0,198,0,0,129,0,0,198,0,0,129,0,4,194,0,18,127,1,3,195,0,19,127,0,118,58,20,80,43,23
2017-08-12T23:59:59Z,132,200,150,107,198,132,133,98,42,40,0,0,0,0,0,0,0,200,0,132,4,196,2,130,0,0,0,0,0,0,0,0,7,190,3,8,125,16,9,191,0,13,127,0,11,189,0,25,124,0,7,193,0,11,128,0,11,189,0,25,124,0,12,188,0,26,123,0,12,188,0,26,124,0,0,200,0,2,132,0,2,198,0,21,130,0,0,200,0,20,132,0,0,200,0,0,132,0,0,200,0,0,132,0,1,199,0,16,131,1,2,198,0,19,130,0,116,61,20,80,45,23
2017-08-13T23:59:59Z,129,197,147,104,194,128,130,95,43,40,0,0,0,0,0,0,0,197,0,129,4,193,2,127,0,0,0,0,0,0,0,0,5,192,0,6,126,14,7,190,0,10,126,0,7,190,0,22,124,0,7,190,0,10,125,0,8,189,0,23,123,0,8,189,0,23,123,0,8,189,0,23,123,0,0,197,0,2,129,0,1,196,0,20,129,0,0,197,0,19,129,0,0,197,0,0,129,0,0,197,0,0,129,0,2,195,0,17,127,1,4,193,0,23,125,0,111,63,20,76,47,23
2017-08-14T23:59:59Z,134,203,154,109,201,134,135,98,44,43,0,0,0,0,0,0,0,203,0,134,4,199,2,132,0,0,0,0,0,0,0,0,7,193,3,9,127,19,7,196,0,11,131,1,11,192,0,28,126,1,7,196,0,11,130,0,9,194,0,27,128,0,10,193,0,27,127,0,9,194,0,26,128,0,1,202,0,4,133,0,1,202,0,24,133,0,0,203,0,22,134,1,0,203,0,0,134,0,0,203,0,0,134,0,4,199,0,21,131,1,3,200,0,23,132,0,117,63,20,80,49,24
2017-08-15T23:59:59Z,134,203,154,109,200,134,135,99,44,42,0,0,0,0,0,0,0,203,0,134,4,199,2,132,0,0,0,0,0,0,0,0,7,196,0,8,129,16,8,195,0,12,130,0,9,194,0,27,127,0,7,196,0,11,130,0,8,195,0,26,128,0,7,196,0,25,129,0,7,196,0,25,129,0,1,202,0,4,133,0,1,202,0,23,133,0,0,203,0,22,134,0,0,203,0,0,134,0,0,203,0,0,134,0,2,201,0,20,132,1,3,200,0,22,132,0,117,64,20,82,48,24
2017-08-16T23:59:58Z,134,203,153,109,201,134,138,102,41,43,0,0,0,0,0,0,0,203,0,134,4,199,2,132,0,0,0,0,0,0,0,0,6,197,0,8,130,17,7,196,0,12,131,0,7,196,0,27,129,0,6,197,0,12,131,0,9,194,0,29,128,0,9,194,0,28,128,0,8,195,0,28,129,0,1,202,0,4,134,0,2,201,0,26,133,0,0,203,0,25,134,0,0,203,0,0,134,0,0,203,0,0,134,0,0,203,0,19,134,1,2,201,0,26,133,0,114,66,20,80,49,25
2017-08-17T23:59:59Z,135,204,153,109,202,135,137,100,40,39,0,0,0,0,0,0,2,202,1,135,4,200,2,133,0,0,0,0,0,0,0,0,5,196,3,7,130,18,6,198,0,10,133,0,9,195,0,26,129,0,7,197,0,11,131,0,11,193,0,28,127,0,9,195,0,26,129,0,8,196,0,26,129,0,1,203,0,4,134,0,0,204,0,23,135,0,0,204,0,23,135,0,0,204,0,0,135,0,0,204,0,0,135,0,4,200,0,21,133,1,1,203,0,24,134,0,119,61,21,84,47,25